Location: Ciula Mare
(45.6000°N, 22.8167°E)
Time: 10:59:02
(UTC+00:00)

RESURS DK-1 - Pass Details

Date: 03 February 2023
Orbit: 549 x 557 km, 69.9° (Epoch: 20 March)

Event Time Altitude Azimuth Distance (km) Brightness Sun altitude
Rises 16:37:21 0° 338° (NNW) 2,740 6.0 -10.8°
Reaches altitude 10° 16:39:42 10° 348° (NNW) 1,843 5.0 -11.2°
Maximum altitude 16:43:31 36° 55° (NE) 899 2.9 -11.8°
Enters shadow 16:47:17 10° 123° (ESE) 1,825 4.5 -12.5°
